TimeAEST,TemperatureF,Dew PointF,Humidity,Sea Level PressureIn,VisibilityMPH,Wind Direction,Wind SpeedMPH,Gust SpeedMPH,PrecipitationIn,Events,Conditions,WindDirDegrees,DateUTC
12:00 AM,72,69,85,30.11,,NW,10.4,,,,Overcast,310,2013-03-22 14:00:00
12:00 AM,71.6,68.0,88,30.09,6.2,NW,10.4,-,N/A,,Overcast,310,2013-03-22 14:00:00
12:30 AM,73.4,68.0,83,30.09,6.2,WNW,9.2,-,N/A,,Overcast,300,2013-03-22 14:30:00
1:00 AM,73.4,68.0,83,30.09,6.2,NW,10.4,-,N/A,,Overcast,310,2013-03-22 15:00:00
1:30 AM,73.4,68.0,83,30.09,6.2,NW,8.1,-,N/A,,Overcast,310,2013-03-22 15:30:00
2:00 AM,73.4,68.0,83,30.06,6.2,NW,6.9,-,N/A,,Overcast,310,2013-03-22 16:00:00
2:30 AM,73.4,68.0,83,30.06,6.2,NW,8.1,-,N/A,,Scattered Clouds,320,2013-03-22 16:30:00
3:00 AM,72,69,86,30.08,,NW,6.9,,,,,310,2013-03-22 17:00:00
3:00 AM,73.4,68.0,83,30.06,6.2,NW,6.9,-,N/A,,Scattered Clouds,310,2013-03-22 17:00:00
3:30 AM,73.4,69.8,88,30.06,6.2,NW,6.9,-,N/A,,Mostly Cloudy,320,2013-03-22 17:30:00
4:00 AM,73.4,68.0,83,30.04,6.2,NNW,5.8,-,N/A,,Scattered Clouds,330,2013-03-22 18:00:00
4:30 AM,71.6,68.0,88,30.04,6.2,NNW,6.9,-,N/A,,Unknown,330,2013-03-22 18:30:00
5:00 AM,71.6,68.0,88,30.06,6.2,NW,5.8,-,N/A,,Unknown,310,2013-03-22 19:00:00
5:30 AM,71.6,68.0,88,30.06,6.2,NNW,8.1,-,N/A,,Scattered Clouds,330,2013-03-22 19:30:00
6:00 AM,73,68,80,30.09,,NNW,5.8,,,,,330,2013-03-22 20:00:00
6:00 AM,73.4,68.0,83,30.06,6.2,NNW,5.8,-,N/A,,Unknown,330,2013-03-22 20:00:00
6:30 AM,73.4,68.0,83,30.09,6.2,NNW,9.2,-,N/A,,Unknown,330,2013-03-22 20:30:00
7:00 AM,75.2,68.0,78,30.06,6.2,NNW,9.2,-,N/A,,Scattered Clouds,330,2013-03-22 21:00:00
7:30 AM,77.0,69.8,78,30.06,6.2,NNW,10.4,-,N/A,,Unknown,340,2013-03-22 21:30:00
8:00 AM,78.8,68.0,69,30.06,6.2,NNW,10.4,-,N/A,,Unknown,330,2013-03-22 22:00:00
8:30 AM,80.6,69.8,70,30.06,6.2,NW,8.1,-,N/A,,Unknown,320,2013-03-22 22:30:00
9:00 AM,80,69,61,30.08,,NW,11.5,,,,,320,2013-03-22 23:00:00
9:00 AM,80.6,69.8,70,30.06,6.2,NW,11.5,-,N/A,,Unknown,320,2013-03-22 23:00:00
9:30 AM,82.4,69.8,66,30.06,6.2,NNW,12.7,-,N/A,,Unknown,330,2013-03-22 23:30:00
10:00 AM,80.6,68.0,65,30.06,6.2,NW,11.5,-,N/A,,Unknown,320,2013-03-23 00:00:00
10:30 AM,84.2,69.8,62,30.06,6.2,NW,10.4,-,N/A,,Unknown,320,2013-03-23 00:30:00
11:00 AM,82.4,71.6,70,30.04,6.2,North,15.0,-,N/A,,Unknown,10,2013-03-23 01:00:00
11:30 AM,84.2,69.8,62,30.04,6.2,NNW,12.7,-,N/A,,Unknown,340,2013-03-23 01:30:00
12:00 PM,82,72,66,30.03,,North,17.3,,,,,10,2013-03-23 02:00:00
12:00 PM,82.4,71.6,70,30.01,6.2,North,17.3,-,N/A,,Unknown,10,2013-03-23 02:00:00
12:30 PM,82.4,71.6,70,30.01,6.2,North,17.3,-,N/A,,Unknown,10,2013-03-23 02:30:00
1:00 PM,82.4,71.6,70,30.01,6.2,North,18.4,-,N/A,,Unknown,10,2013-03-23 03:00:00
1:30 PM,80.6,71.6,74,29.98,6.2,North,17.3,-,N/A,,Unknown,10,2013-03-23 03:30:00
2:00 PM,82.4,71.6,70,29.95,6.2,North,17.3,-,N/A,,Unknown,10,2013-03-23 04:00:00
2:30 PM,80.6,71.6,74,29.95,6.2,North,17.3,-,N/A,,Unknown,10,2013-03-23 04:30:00
3:00 PM,82,72,63,29.96,,North,16.1,,,,,0,2013-03-23 05:00:00
3:00 PM,82.4,71.6,70,29.95,6.2,North,16.1,-,N/A,,Unknown,360,2013-03-23 05:00:00
3:30 PM,80.6,71.6,74,29.95,6.2,North,17.3,-,N/A,,Unknown,10,2013-03-23 05:30:00
4:00 PM,80.6,73.4,79,29.95,6.2,North,17.3,-,N/A,,Unknown,360,2013-03-23 06:00:00
4:30 PM,78.8,71.6,78,29.95,6.2,North,17.3,-,N/A,,Unknown,360,2013-03-23 06:30:00
5:00 PM,78.8,71.6,78,29.95,6.2,North,15.0,-,N/A,,Unknown,360,2013-03-23 07:00:00
5:30 PM,77.0,71.6,83,29.95,6.2,North,16.1,-,N/A,,Unknown,360,2013-03-23 07:30:00
6:00 PM,77,71,77,29.98,,North,16.1,,,,,0,2013-03-23 08:00:00
6:00 PM,77.0,71.6,83,29.98,6.2,North,16.1,-,N/A,,Unknown,360,2013-03-23 08:00:00
6:30 PM,77.0,71.6,83,29.98,6.2,North,15.0,-,N/A,,Unknown,360,2013-03-23 08:30:00
7:00 PM,77.0,71.6,83,29.98,6.2,North,15.0,-,N/A,,Unknown,360,2013-03-23 09:00:00
7:30 PM,77.0,73.4,89,29.98,6.2,North,13.8,-,N/A,,Unknown,360,2013-03-23 09:30:00
8:00 PM,77.0,71.6,83,30.01,6.2,North,13.8,-,N/A,,Unknown,350,2013-03-23 10:00:00
8:30 PM,77.0,71.6,83,30.01,6.2,North,11.5,-,N/A,,Unknown,360,2013-03-23 10:30:00
9:00 PM,77,72,79,30.04,,North,9.2,,,,,350,2013-03-23 11:00:00
9:00 PM,77.0,71.6,83,30.04,6.2,North,9.2,-,N/A,,Mostly Cloudy,350,2013-03-23 11:00:00
9:30 PM,77.0,71.6,83,30.04,6.2,North,11.5,-,N/A,,Overcast,360,2013-03-23 11:30:00
10:00 PM,77.0,71.6,83,30.04,6.2,North,10.4,-,N/A,,Overcast,360,2013-03-23 12:00:00
10:30 PM,75.2,71.6,89,30.04,6.2,North,10.4,-,N/A,,Unknown,350,2013-03-23 12:30:00
11:00 PM,75.2,71.6,89,30.04,6.2,NNW,9.2,-,N/A,,Mostly Cloudy,340,2013-03-23 13:00:00
11:30 PM,75.2,71.6,89,30.04,6.2,NNW,10.4,-,N/A,,Mostly Cloudy,340,2013-03-23 13:30:00